Tracking 29892 objects as of 21-Nov-2024
HD Live streaming from Space Station
objects crossing your sky now

CZ-6A DEB

Track CZ-6A DEB now!
10-day predictions


NORAD ID: 55003
Int'l Code: 2022-151UT
Perigee: 634.3 km
Apogee: 754.0 km
Inclination: 98.7 °
Period: 98.5 minutes
Semi major axis: 7065 km
RCS: Unknown
Launch date: November 11, 2022
Source: People's Republic of China (PRC)
Launch site: Taiyaun Space Center, China (TSC)

Note: This is SATELLITE DEBRIS
Your satellite tracking list
Your tracking list is empty




NASA's NSSDC Master Catalog

Two Line Element Set (TLE):
1 55003U 22151UT  24325.05300753  .00036980  00000-0  69981-2 0  9994
2 55003  98.6585 356.1913 0084720 243.9477 115.2983 14.61899576105484
Source of the keplerian elements: AFSPC